CSC1006 ZSPD-ZGGG

Flight info

Callsign CSC1006
Flight time N/A
Altitude 36100
Route NXD W131 AKDIM A470 DUBGO W134 ELNEX A599 PLT W19 OLPAB
Aircraft A359/H-SDE2E3GHIJ3J4J5LM1ORWXY/LB1D1

Departure

Time N/A
Airport Shanghai Pudong International Airport (ZSPD)

Arrival

Time 2026-04-28 13:05
Airport Guangzhou Baiyun International Airport (ZGGG)
Time Latitude Longitude Altitude Speed Heading
2026-04-28 12:32 25.51757 114.80285 35968 ft 470 kts 197°
2026-04-28 12:33 25.45365 114.78703 35976 ft 471 kts 197°
2026-04-28 12:33 25.38969 114.77118 35975 ft 471 kts 197°
2026-04-28 12:34 25.32572 114.75537 35977 ft 471 kts 197°
2026-04-28 12:34 25.26177 114.73959 35976 ft 471 kts 197°
2026-04-28 12:35 25.19764 114.72377 35979 ft 473 kts 197°
2026-04-28 12:35 25.13331 114.70793 35978 ft 474 kts 197°
2026-04-28 12:36 25.06899 114.69212 35978 ft 473 kts 197°
2026-04-28 12:36 25.00470 114.67633 35970 ft 473 kts 197°
2026-04-28 12:37 24.94034 114.66053 35988 ft 474 kts 197°
2026-04-28 12:37 24.87587 114.64473 35986 ft 475 kts 197°
2026-04-28 12:38 24.81138 114.62898 35995 ft 475 kts 197°
2026-04-28 12:38 24.74691 114.61312 35993 ft 474 kts 197°
2026-04-28 12:39 24.68489 114.59040 35997 ft 467 kts 211°
2026-04-28 12:39 24.62781 114.55650 35997 ft 466 kts 213°
2026-04-28 12:39 24.60018 114.53908 35708 ft 461 kts 213°
2026-04-28 12:40 24.57235 114.52131 34849 ft 465 kts 213°
2026-04-28 12:40 24.54412 114.50323 33843 ft 473 kts 213°
2026-04-28 12:40 24.51541 114.48491 32749 ft 481 kts 212°
2026-04-28 12:40 24.48656 114.46660 31449 ft 478 kts 212°
2026-04-28 12:41 24.45732 114.44812 30163 ft 491 kts 212°
2026-04-28 12:41 24.42755 114.42934 29150 ft 494 kts 212°
2026-04-28 12:41 24.39783 114.41068 28443 ft 490 kts 211°
2026-04-28 12:41 24.36835 114.39225 27808 ft 485 kts 212°
2026-04-28 12:42 24.34940 114.38039 27400 ft 482 kts 212°
2026-04-28 12:42 24.31925 114.36150 26773 ft 477 kts 212°
2026-04-28 12:42 24.29058 114.34355 26173 ft 472 kts 212°
2026-04-28 12:42 24.26218 114.32577 25588 ft 467 kts 212°
2026-04-28 12:43 24.23409 114.30819 25009 ft 462 kts 212°
2026-04-28 12:43 24.20625 114.29078 24195 ft 459 kts 212°
2026-04-28 12:43 24.17891 114.27369 23434 ft 444 kts 212°
2026-04-28 12:43 24.15267 114.25731 22737 ft 424 kts 212°
2026-04-28 12:44 24.12763 114.24169 22188 ft 406 kts 212°
2026-04-28 12:44 24.10323 114.22638 21641 ft 403 kts 212°
2026-04-28 12:44 24.08058 114.20869 21065 ft 398 kts 224°
2026-04-28 12:44 24.06155 114.18688 20517 ft 395 kts 230°
2026-04-28 12:45 24.04363 114.16407 19958 ft 394 kts 230°
2026-04-28 12:45 24.02593 114.14138 19392 ft 392 kts 230°
2026-04-28 12:45 24.00820 114.11874 18838 ft 391 kts 230°
2026-04-28 12:45 23.99048 114.09617 18282 ft 391 kts 230°
2026-04-28 12:46 23.97876 114.08127 17848 ft 391 kts 230°
2026-04-28 12:46 23.95509 114.05124 17030 ft 388 kts 230°
2026-04-28 12:46 23.94353 114.03640 16636 ft 386 kts 231°
2026-04-28 12:46 23.92050 114.00662 15864 ft 382 kts 230°
2026-04-28 12:47 23.90363 113.98485 15274 ft 379 kts 230°
2026-04-28 12:47 23.89213 113.97002 14877 ft 377 kts 230°
2026-04-28 12:47 23.87522 113.94824 14295 ft 374 kts 230°
2026-04-28 12:47 23.85302 113.91967 13505 ft 371 kts 230°
2026-04-28 12:48 23.84178 113.90524 13081 ft 369 kts 230°
2026-04-28 12:48 23.81993 113.87727 12480 ft 360 kts 230°
2026-04-28 12:48 23.80885 113.86333 12409 ft 361 kts 229°
2026-04-28 12:48 23.79252 113.84286 12296 ft 350 kts 229°
2026-04-28 12:49 23.77707 113.82348 12134 ft 336 kts 229°
2026-04-28 12:49 23.76187 113.80438 11958 ft 322 kts 230°
2026-04-28 12:49 23.74770 113.78657 11810 ft 308 kts 230°
2026-04-28 12:49 23.73394 113.76932 11649 ft 294 kts 230°
2026-04-28 12:50 23.72081 113.75284 11532 ft 282 kts 230°
2026-04-28 12:50 23.70821 113.73701 11382 ft 271 kts 230°
2026-04-28 12:50 23.69601 113.72170 11281 ft 265 kts 230°
2026-04-28 12:50 23.68390 113.70649 11157 ft 266 kts 230°
2026-04-28 12:51 23.67178 113.69128 11032 ft 265 kts 230°
2026-04-28 12:51 23.65969 113.67611 10916 ft 265 kts 230°
2026-04-28 12:51 23.64763 113.66099 10797 ft 264 kts 230°
2026-04-28 12:51 23.63559 113.64590 10648 ft 264 kts 230°
2026-04-28 12:52 23.62355 113.63082 10543 ft 263 kts 230°
2026-04-28 12:52 23.61154 113.61578 10410 ft 263 kts 230°
2026-04-28 12:52 23.59948 113.60077 10213 ft 263 kts 229°
2026-04-28 12:52 23.58579 113.58758 10026 ft 263 kts 214°
2026-04-28 12:53 23.56927 113.57891 9842 ft 264 kts 203°
2026-04-28 12:53 23.55196 113.57209 9644 ft 265 kts 202°
2026-04-28 12:53 23.53459 113.56546 9444 ft 264 kts 202°
2026-04-28 12:53 23.51729 113.55881 9230 ft 263 kts 202°
2026-04-28 12:54 23.50005 113.55215 9042 ft 262 kts 202°
2026-04-28 12:54 23.48289 113.54549 8839 ft 261 kts 202°
2026-04-28 12:54 23.46574 113.53882 8636 ft 261 kts 202°
2026-04-28 12:54 23.44868 113.53219 8438 ft 260 kts 201°
2026-04-28 12:55 23.43167 113.52556 8241 ft 259 kts 202°
2026-04-28 12:55 23.41470 113.51895 8058 ft 258 kts 202°
2026-04-28 12:55 23.39782 113.51237 7848 ft 258 kts 201°
2026-04-28 12:55 23.38117 113.50594 7660 ft 257 kts 201°
2026-04-28 12:56 23.36439 113.49942 7467 ft 255 kts 201°
2026-04-28 12:56 23.34770 113.49290 7260 ft 254 kts 201°
2026-04-28 12:56 23.33088 113.48634 7083 ft 254 kts 201°
2026-04-28 12:56 23.31448 113.47995 6892 ft 253 kts 201°
2026-04-28 12:57 23.29791 113.47349 6711 ft 253 kts 201°
2026-04-28 12:57 23.28140 113.46706 6509 ft 252 kts 201°
2026-04-28 12:57 23.26492 113.46066 6335 ft 251 kts 201°
2026-04-28 12:57 23.24851 113.45430 6152 ft 249 kts 201°
2026-04-28 12:58 23.23224 113.44798 6002 ft 248 kts 201°
2026-04-28 12:58 23.21601 113.44168 5841 ft 247 kts 200°
2026-04-28 12:58 23.19987 113.43541 5694 ft 243 kts 200°
2026-04-28 12:58 23.18460 113.42847 5532 ft 234 kts 209°
2026-04-28 12:59 23.17224 113.41764 5372 ft 226 kts 228°
2026-04-28 12:59 23.16442 113.40294 5213 ft 227 kts 248°
2026-04-28 12:59 23.16203 113.38587 5072 ft 232 kts 268°
2026-04-28 12:59 23.16571 113.36866 4879 ft 236 kts 290°
2026-04-28 13:00 23.17517 113.35413 4709 ft 238 kts 312°
2026-04-28 13:00 23.18879 113.34391 4505 ft 236 kts 326°
2026-04-28 13:00 23.20200 113.33412 4350 ft 224 kts 313°
2026-04-28 13:00 23.21210 113.32180 4059 ft 216 kts 302°
2026-04-28 13:01 23.22079 113.30871 3706 ft 212 kts 300°
2026-04-28 13:01 23.22918 113.29562 3294 ft 210 kts 299°
2026-04-28 13:01 23.23755 113.28275 2823 ft 209 kts 302°
2026-04-28 13:01 23.24916 113.27335 2308 ft 219 kts 341°
2026-04-28 13:02 23.26372 113.27288 2144 ft 201 kts 19°
2026-04-28 13:02 23.27614 113.27779 1999 ft 183 kts 23°
2026-04-28 13:02 23.28793 113.28185 1760 ft 173 kts 17°
2026-04-28 13:02 23.29938 113.28466 1540 ft 164 kts 16°
2026-04-28 13:03 23.31036 113.28762 1333 ft 162 kts 18°
2026-04-28 13:03 23.32121 113.29061 1113 ft 160 kts 17°
2026-04-28 13:03 23.33195 113.29352 921 ft 157 kts 16°
2026-04-28 13:03 23.34239 113.29628 746 ft 152 kts 15°
2026-04-28 13:04 23.35256 113.29888 557 ft 148 kts 17°
2026-04-28 13:04 23.36247 113.30157 383 ft 145 kts 18°
2026-04-28 13:04 23.37211 113.30428 209 ft 142 kts 15°
2026-04-28 13:04 23.38171 113.30695 60 ft 140 kts 15°
2026-04-28 13:05 23.38939 113.30903 59 ft 84 kts 14°
2026-04-28 13:05 23.39307 113.31001 58 ft 30 kts 14°
2026-04-28 13:05 23.39504 113.31055 58 ft 29 kts 11°
2026-04-28 13:05 23.39692 113.31046 59 ft 14 kts 346°
2026-04-28 13:06 23.39788 113.31017 59 ft 14 kts 333°
2026-04-28 13:06 23.39789 113.30937 55 ft 12 kts 214°
2026-04-28 13:06 23.39728 113.30915 58 ft 0 kts 194°
2026-04-28 13:06 23.39724 113.30914 57 ft 4 kts 194°
2026-04-28 13:07 23.39677 113.30902 60 ft 6 kts 194°
2026-04-28 13:07 23.39628 113.30888 60 ft 8 kts 194°
2026-04-28 13:07 23.39566 113.30872 56 ft 10 kts 194°
2026-04-28 13:07 23.39489 113.30851 60 ft 12 kts 194°
2026-04-28 13:08 23.39399 113.30826 58 ft 14 kts 194°
2026-04-28 13:08 23.39295 113.30798 56 ft 16 kts 194°
2026-04-28 13:08 23.39179 113.30767 61 ft 18 kts 194°
2026-04-28 13:08 23.39050 113.30732 55 ft 20 kts 194°
2026-04-28 13:09 23.38924 113.30698 60 ft 16 kts 194°
2026-04-28 13:09 23.38841 113.30676 57 ft 12 kts 194°
2026-04-28 13:09 23.38755 113.30653 55 ft 14 kts 194°
2026-04-28 13:09 23.38653 113.30625 57 ft 16 kts 194°
2026-04-28 13:10 23.38568 113.30602 58 ft 9 kts 194°
2026-04-28 13:10 23.38531 113.30557 56 ft 8 kts 272°
2026-04-28 13:10 23.38547 113.30486 55 ft 11 kts 283°
2026-04-28 13:10 23.38561 113.30426 58 ft 7 kts 284°
2026-04-28 13:11 23.38575 113.30385 59 ft 6 kts 305°
2026-04-28 13:11 23.38613 113.30358 59 ft 8 kts 334°
2026-04-28 13:11 23.38647 113.30342 55 ft 6 kts 338°
2026-04-28 13:11 23.38677 113.30329 56 ft 4 kts 338°
2026-04-28 13:12 23.38694 113.30321 60 ft 0 kts 338°
2026-04-28 13:12 23.38701 113.30318 60 ft 2 kts 338°
2026-04-28 13:12 23.38716 113.30311 57 ft 3 kts 338°
2026-04-28 13:12 23.38724 113.30308 59 ft 0 kts 338°